Home > Weather > Bengaluru > Past weeks

Flag for India Weather for the Past 2 Weeks in Bengaluru, Karnataka, India

Now
82 °F

Clear.


Feels Like: 82 °F
Forecast: 65 / 93 °F
Wind: No wind

Location: Bengaluru Internatinal Airport

Current Time: Feb 9, 2016 at 7:58:16 PM

Latest Report: Feb 9, 2016 at 7:30 PM


Visibility: 4 mi

Pressure: 30.01 "Hg (27.17 "Hg at 876m altitude)

Humidity: 45%

Dew point: 59 °F

Location of BengaluruLocation

Historic Weather in Bengaluru — Graph

°F

Bengaluru Temperature Yesterday

Maximum temperature yesterday: 93 °F (at 1:30 PM)
Minimum temperature yesterday: 72 °F (at 3:00 AM)
Average temperature yesterday: 81 °F

High & Low Weather Summary for the Past Weeks

 TemperatureHumidityPressure
High95 °F (Feb 1, 2:30 PM)100% (Jan 26, 12:00 AM)30.18 "Hg (Jan 26, 12:00 AM)
Low59 °F (Feb 2, 5:30 AM)11% (Feb 2, 2:30 PM)29.95 "Hg (Feb 6, 2:30 PM)
Average78 °F63%30.07 "Hg
* Reported Jan 25 6:30 PM — Feb 9 6:30 PM, Bengaluru, Weather by CustomWeather, © 2016

Note: Actual official high and low records may vary slightly from our data, if they occured in-between our weather recording intervals... More about our weather records

Advertising

Bengaluru Weather History for the Previous 24 Hours

 ConditionsComfort  
Time TempWeatherWind HumidityBarometerVisibility
6:30 PM
Tue, Feb 9
88 °FClear.No wind35%30.01 "Hg5 mi
6:00 PM90 °FSunny.No wind33%29.98 "Hg10 mi
5:30 PM91 °FSunny.No wind30%29.98 "Hg10 mi
5:00 PM91 °FSunny.1 mph30%29.98 "Hg10 mi
4:30 PM91 °FSunny.5 mph30%29.98 "Hg10 mi
4:00 PM93 °FSunny.1 mph28%29.98 "Hg10 mi
3:30 PM91 °FSunny.3 mph30%29.98 "Hg10 mi
3:00 PM93 °FPassing clouds.6 mph28%29.98 "HgN/A
2:30 PM90 °FScattered clouds.7 mph33%29.98 "HgN/A
12:30 PM90 °FPassing clouds.8 mph29%30.07 "HgN/A
12:00 PM90 °FPassing clouds.8 mph29%30.09 "HgN/A
11:30 AM88 °FSunny.7 mph33%30.07 "Hg10 mi
11:00 AM86 °FSunny.7 mph35%30.12 "Hg10 mi
10:30 AM84 °FSunny.6 mph45%30.12 "Hg10 mi
10:00 AM82 °FClear.7 mph48%30.12 "Hg5 mi
9:30 AM81 °FClear.2 mph51%30.12 "Hg4 mi
9:00 AM77 °FClear.1 mph83%30.12 "Hg4 mi
8:30 AM73 °FFog.No wind100%30.09 "Hg2 mi
8:00 AM72 °FFog.No wind100%30.09 "Hg1 mi
7:30 AM68 °FFog.No wind26%30.07 "Hg1 mi
7:00 AM68 °FFog.No wind100%30.07 "Hg1 mi
6:30 AM68 °FFog.No wind26%30.07 "Hg1 mi
6:00 AM68 °FFog.No wind100%30.04 "Hg1 mi
5:30 AM68 °FFog.No wind100%30.04 "Hg1 mi
5:00 AM68 °FFog.No wind100%30.04 "Hg1 mi
4:30 AM70 °FFog.No wind100%30.04 "Hg2 mi
4:00 AM70 °FFog.No wind100%30.04 "Hg2 mi
3:30 AM72 °FFog.No wind100%30.04 "Hg2 mi
3:00 AM72 °FFog.1 mph100%30.04 "Hg2 mi
2:30 AM72 °FFog.No wind100%30.04 "Hg2 mi
2:00 AM72 °FFog.No wind100%30.04 "Hg2 mi
1:30 AM73 °FFog.No wind100%30.07 "Hg2 mi
1:00 AM73 °FFog.No wind100%30.07 "Hg2 mi
12:30 AM75 °FClear.No wind94%30.07 "Hg4 mi
12:00 AM75 °FClear.No wind94%30.09 "Hg4 mi
11:30 PM
Mon, Feb 8
75 °FClear.No wind89%30.09 "Hg4 mi
11:00 PM77 °FClear.No wind83%30.09 "Hg4 mi
10:30 PM79 °FClear.9 mph79%30.09 "Hg4 mi
10:00 PM79 °FClear.2 mph74%30.09 "Hg4 mi
9:30 PM81 °FClear.No wind70%30.09 "Hg4 mi
9:00 PM81 °FClear.10 mph66%30.07 "Hg4 mi
8:30 PM82 °FClear.9 mph62%30.07 "Hg4 mi
8:00 PM82 °FClear.6 mph51%30.04 "Hg4 mi
7:30 PM82 °FClear.5 mph51%30.01 "Hg4 mi
7:00 PM84 °FClear.2 mph45%30.01 "Hg5 mi
Weather by CustomWeather, © 2016

See weather overviewHow to use our weather pages